Location: York
(31.8935°S, 116.7682°E)
Time: 12:09:11
(UTC+08:00)

A-11 Canister half - All Passes

Search period start: 06 October 2022 00:00
Search period end: 16 October 2022 00:00
Orbit: 1524 x 1684 km, 47.3° (Epoch: 05 October)

Date Brightness Start Highest point End Pass type
(mag) Time Alt. Az. Time Alt. Az. Time Alt. Az.
06 Oct - 01:23:05 10° NW 01:33:08 70° NE 01:43:15 10° SE visible
06 Oct - 03:29:02 10° W 03:38:48 48° SSW 03:48:31 10° SE visible
06 Oct - 05:37:23 10° WSW 05:46:17 33° S 05:55:00 10° ESE daylight
06 Oct - 07:43:59 10° SW 07:53:40 49° SSE 08:03:00 10° E daylight
06 Oct - 09:49:22 10° WSW 09:59:08 65° NW 10:08:31 10° NE daylight
06 Oct - 11:58:28 10° W 12:02:48 14° WNW 12:07:05 10° NNW daylight
06 Oct - 23:02:26 10° NNE 23:07:34 15° ENE 23:12:44 10° E visible
07 Oct - 01:01:27 10° NW 01:11:25 66° NE 01:21:30 10° SE visible
07 Oct - 03:07:11 10° W 03:17:00 50° SSW 03:26:47 10° SE visible
07 Oct - 05:15:31 10° WSW 05:24:26 33° S 05:33:11 10° ESE visible
07 Oct - 07:22:14 10° SW 07:31:54 47° SSE 07:41:12 10° E daylight
07 Oct - 09:27:36 10° SW 09:37:28 69° NW 09:46:55 10° NE daylight
07 Oct - 11:36:11 10° W 11:41:11 15° WNW 11:46:07 10° NNW daylight
07 Oct - 22:41:28 10° NNE 22:45:56 14° ENE 22:50:26 10° E night (unlit)
08 Oct - 00:39:48 10° NNW 00:49:43 63° NE 00:59:45 10° ESE visible
08 Oct - 02:45:22 10° W 02:55:13 51° SSW 03:05:04 10° SE visible
08 Oct - 04:53:39 10° WSW 05:02:35 33° S 05:11:22 10° ESE visible
08 Oct - 07:00:29 10° SW 07:10:06 46° SSE 07:19:24 10° E daylight
08 Oct - 09:05:52 10° SW 09:15:47 73° NW 09:25:18 10° NE daylight
08 Oct - 11:14:00 10° W 11:19:34 17° WNW 11:25:03 10° NNW daylight
08 Oct - 22:20:41 10° NE 22:24:18 12° ENE 22:27:57 10° E night (unlit)
09 Oct - 00:18:11 10° NNW 00:28:01 60° NE 00:38:00 10° ESE visible
09 Oct - 02:23:31 10° WNW 02:33:25 53° SSW 02:43:20 10° SE visible
09 Oct - 04:31:47 10° WSW 04:40:44 33° S 04:49:33 10° ESE visible
09 Oct - 06:38:43 10° SW 06:48:19 45° SSE 06:57:35 10° E daylight
09 Oct - 08:44:06 10° SW 08:54:05 76° NW 09:03:40 10° NE daylight
09 Oct - 10:51:54 10° W 10:57:57 18° WNW 11:03:54 10° NNW daylight
09 Oct - 22:00:13 10° NE 22:02:40 11° ENE 22:05:07 10° ENE night (unlit)
09 Oct - 23:56:36 10° NNW 00:06:20 57° NE 00:16:13 10° ESE visible
10 Oct - 02:01:43 10° WNW 02:11:38 55° SSW 02:21:37 10° SE visible
10 Oct - 04:09:54 10° WSW 04:18:53 33° S 04:27:45 10° ESE visible
10 Oct - 06:16:58 10° SW 06:26:31 43° SSE 06:35:46 10° E daylight
10 Oct - 08:22:21 10° SW 08:32:24 80° NW 08:42:02 10° NE daylight
10 Oct - 10:29:50 10° W 10:36:19 20° WNW 10:42:42 10° NNW daylight
10 Oct - 23:35:00 10° NNW 23:44:38 53° NE 23:54:26 10° ESE visible
11 Oct - 01:39:54 10° WNW 01:49:51 57° SSW 01:59:53 10° SE visible
11 Oct - 03:48:03 10° WSW 03:57:02 34° S 04:05:57 10° ESE visible
11 Oct - 05:55:12 10° SW 06:04:43 42° SSE 06:13:56 10° E daylight
11 Oct - 08:00:36 10° SW 08:10:42 84° NW 08:20:23 10° NE daylight
11 Oct - 10:07:49 10° W 10:14:42 22° NW 10:21:26 10° N daylight
11 Oct - 23:13:26 10° NNW 23:22:57 50° NE 23:32:40 10° ESE visible
12 Oct - 01:18:05 10° WNW 01:28:05 59° SSW 01:38:10 10° SE visible
12 Oct - 03:26:10 10° WSW 03:35:12 34° S 03:44:09 10° SE visible
12 Oct - 05:33:25 10° SW 05:42:54 41° SSE 05:52:06 10° E daylight
12 Oct - 07:38:51 10° SW 07:48:59 87° NW 07:58:43 10° NE daylight
12 Oct - 09:45:50 10° WSW 09:53:05 24° NW 10:00:10 10° N daylight
12 Oct - 22:51:52 10° NNW 23:01:16 48° NE 23:10:52 10° ESE visible
13 Oct - 00:56:18 10° WNW 01:06:18 62° SSW 01:16:26 10° SE visible
13 Oct - 03:04:18 10° WSW 03:13:21 34° S 03:22:21 10° SE visible
13 Oct - 05:11:39 10° SW 05:21:05 40° SSE 05:30:17 10° E visible
13 Oct - 07:17:06 10° SW 07:27:17 89° SE 07:37:02 10° NE daylight
13 Oct - 09:23:53 10° WSW 09:31:26 25° NW 09:38:49 10° N daylight
13 Oct - 22:30:19 10° NNW 22:39:36 45° NE 22:49:03 10° ESE visible
14 Oct - 00:34:31 10° WNW 00:44:32 64° SSW 00:54:43 10° SE visible
14 Oct - 02:42:25 10° WSW 02:51:31 35° S 03:00:33 10° SE visible
14 Oct - 04:49:52 10° SW 04:59:16 39° SSE 05:08:26 10° E visible
14 Oct - 06:55:22 10° SW 07:05:34 86° SE 07:15:21 10° NE daylight
14 Oct - 09:01:57 10° WSW 09:09:49 27° NW 09:17:28 10° N daylight
14 Oct - 22:08:47 10° NNW 22:17:55 42° NE 22:27:15 10° ESE visible
15 Oct - 00:12:44 10° WNW 00:22:46 67° SSW 00:32:59 10° SE visible
15 Oct - 02:20:33 10° WSW 02:29:40 35° S 02:38:46 10° SE visible
15 Oct - 04:28:05 10° SW 04:37:27 38° SSE 04:46:36 10° E visible
15 Oct - 06:33:38 10° SW 06:43:50 82° SE 06:53:40 10° NE daylight
15 Oct - 08:40:03 10° WSW 08:48:10 29° NW 08:56:05 10° N daylight
15 Oct - 21:47:18 10° NNW 21:56:15 40° NE 22:05:25 10° ESE visible
